Home > Weather > Mons > Past weeks

Flag for Belgium Weather for the Past 2 Weeks in Mons, Belgium

Now
46 °F

Passing clouds.


Feels Like: 38 °F
Forecast: 40 / 46 °F
Wind: 22 mph from Southwest

Location: Chievres

Current Time: Feb 8, 2016 at 8:11:47 AM

Latest Report: Feb 8, 2016 at 7:25 AM


Visibility: N/A

Pressure: 29.27 "Hg

Humidity: 87%

Dew point: 43 °F

Location of MonsLocation

Historic Weather in Mons — Graph

°F

Mons Temperature Yesterday

Maximum temperature yesterday: 54 °F (at 1:25 AM)
Minimum temperature yesterday: 45 °F (at 6:25 AM)
Average temperature yesterday: 47 °F

High & Low Weather Summary for the Past Weeks

 TemperatureHumidityPressure
High55 °F (Jan 25, 1:25 PM)100% (Jan 24, 7:55 AM)30.45 "Hg (Jan 24, 7:55 AM)
Low34 °F (Feb 4, 4:25 AM)55% (Jan 25, 1:25 PM)29.27 "Hg (Feb 8, 4:25 AM)
Average47 °F86%30.05 "Hg
* Reported Jan 24 6:25 AM — Feb 8 6:55 AM, Mons, Weather by CustomWeather, © 2016

Note: Actual official high and low records may vary slightly from our data, if they occured in-between our weather recording intervals... More about our weather records

Advertising

Mons Weather History for the Previous 24 Hours

 ConditionsComfort  
Time TempWeatherWind HumidityBarometerVisibility
6:55 AM
Mon, Feb 8
48 °FLight rain. Partly cloudy.24 mph82%29.27 "HgN/A
6:25 AM48 °FPassing clouds.22 mph82%29.27 "HgN/A
5:55 AM46 °FPartly cloudy.17 mph93%29.27 "HgN/A
5:25 AM46 °FHeavy rain. Overcast.17 mph93%29.33 "Hg5 mi
5:04 AM46 °FHeavy rain. Overcast.20 mph93%29.30 "Hg4 mi
4:25 AM46 °FRain. Overcast.25 mph93%29.27 "Hg4 mi
3:55 AM46 °FLight rain. Overcast.25 mph93%29.30 "Hg3 mi
3:25 AM46 °FRain. Overcast.30 mph93%29.33 "Hg2 mi
2:55 AM46 °FOvercast.29 mph87%29.36 "HgN/A
1:55 AM46 °FDrizzle. Overcast.28 mph82%29.39 "HgN/A
1:25 AM46 °FLight rain. Overcast.31 mph82%29.42 "HgN/A
12:55 AM46 °FOvercast.30 mph76%29.45 "HgN/A
11:55 PM
Sun, Feb 7
45 °FLight rain. Overcast.29 mph81%29.47 "HgN/A
11:25 PM46 °FPassing clouds.30 mph71%29.47 "HgN/A
10:55 PM46 °FPassing clouds.29 mph71%29.50 "HgN/A
10:25 PM46 °FPartly cloudy.24 mph71%29.53 "HgN/A
9:55 PM46 °FPartly cloudy.25 mph71%29.56 "HgN/A
9:25 PM45 °FOvercast.21 mph71%29.56 "HgN/A
8:55 PM45 °FPassing clouds.20 mph71%29.56 "HgN/A
8:25 PM45 °FPassing clouds.20 mph71%29.59 "HgN/A
7:55 PM45 °FQuite cool.18 mph66%29.59 "HgN/A
7:25 PM45 °FPassing clouds.16 mph71%29.62 "HgN/A
6:55 PM46 °FPassing clouds.18 mph66%29.62 "HgN/A
6:25 PM46 °FPassing clouds.18 mph66%29.62 "HgN/A
5:55 PM46 °FPassing clouds.18 mph66%29.62 "HgN/A
5:25 PM46 °FPartly sunny.17 mph66%29.62 "HgN/A
4:55 PM46 °FPartly sunny.18 mph66%29.62 "HgN/A
4:25 PM46 °FPartly sunny.21 mph66%29.62 "HgN/A
3:55 PM48 °FPartly sunny.21 mph62%29.59 "HgN/A
3:25 PM46 °FScattered clouds.18 mph71%29.59 "HgN/A
2:55 PM46 °FPartly sunny.15 mph71%29.59 "HgN/A
2:25 PM46 °FPartly sunny.16 mph71%29.59 "HgN/A
1:55 PM46 °FPartly sunny.17 mph71%29.59 "HgN/A
1:25 PM46 °FPartly sunny.18 mph71%29.59 "HgN/A
12:55 PM46 °FPartly sunny.18 mph76%29.56 "HgN/A
12:25 PM46 °FPartly sunny.20 mph71%29.56 "HgN/A
11:55 AM46 °FPartly sunny.20 mph71%29.56 "HgN/A
11:25 AM45 °FPartly sunny.17 mph81%29.53 "HgN/A
10:55 AM46 °FPartly sunny.16 mph76%29.53 "HgN/A
10:25 AM45 °FScattered clouds.18 mph87%29.53 "HgN/A
9:55 AM45 °FPartly sunny.15 mph87%29.50 "HgN/A
9:25 AM45 °FPartly sunny.13 mph81%29.50 "HgN/A
8:55 AM45 °FPartly sunny.16 mph81%29.50 "HgN/A
8:25 AM45 °FBroken clouds.16 mph87%29.47 "HgN/A
Weather by CustomWeather, © 2016

See weather overviewHow to use our weather pages